[[{"header":{"parameterUnit":"m.s-1","parameterCategory":2,"la1":30.2991,"la2":30.254,"lo1":-89.0895,"lo2":-89.0444,"dy":0.0017,"dx":0.0017,"nx":28,"ny":28,"refTime":"2025-09-02T09:00:00:Z","depth":"0","parameterNumber":2,"parameterNumberName":"U-component_of_CURRENTS"},"data":[0,0,0,0,0,0,0,0,0,0,0,0,0,0,0,0,0,0,0,0,0,0,0,0,0,0,0,0,0,0,0,0,0,0,0,0,0,0,0,0,0,0,0,0,0,0,0,0,0,0,0,0,0,0,0,0,0,0,0.2513,0.2513,0,0.2518,0.2518,0.2518,0.2511,0.2511,0.2511,0.2511,0.2513,0.2513,0.2513,0,0,0,0,0,0,0,0,0,0,0,0,0,0.2455,0.2456,0.2512,0.2513,0.2513,0.2518,0.2518,0.2517,0.2511,0.2511,0.2511,0.2511,0.2513,0.2513,0.2513,0,0,0,0,0,0,0,0,0,0,0,0,0,0.2469,0.2456,0.2512,0.2513,0.2513,0.2518,0.2518,0.2517,0.2511,0.2511,0.2511,0.2511,0.2513,0.2513,0.2513,0.2511,0,0,0.2513,0.2513,0,0,0,0,0,0,0,0,0.2468,0.2471,0.2512,0.2513,0.2513,0.2517,0.2498,0.2516,0.2511,0.2508,0.2511,0.2511,0.2516,0.2516,0.2512,0.2511,0.2511,0.2513,0.2513,0.2513,0.2513,0,0,0,0,0,0,0,0.2467,0.247,0.2511,0.2513,0.2514,0.2499,0.2501,0.2501,0.2509,0.2508,0.2509,0.2515,0.2516,0.2512,0.2512,0.2511,0.2513,0.2513,0.2513,0.2513,0.2559,0.256,0,0,0,0,0,0,0.2476,0.247,0.2511,0.2512,0.2494,0.25,0.2503,0.2513,0.2509,0.2509,0.2515,0.2514,0.2512,0.2512,0.2512,0.2579,0.2513,0.2513,0.2513,0.2558,0.2559,0.2561,0,0,0,0,0,0,0.2475,0.248,0.2511,0.2493,0.2496,0.2502,0.2513,0.2513,0.2511,0.2514,0.2514,0.2514,0.2512,0.2512,0.252,0.2577,0.2513,0.2513,0.2556,0.2558,0.256,0.2669,0,0,0,0,0,0,0.2473,0.2479,0.248,0.2494,0.2498,0.2518,0.2513,0.2513,0.2516,0.2516,0.2513,0.2513,0.2512,0.252,0.252,0.2575,0.2513,0.2555,0.2557,0.2559,0.2664,0.2675,0.2684,0,0,0,0,0,0.2471,0.2478,0.2481,0.2485,0.2503,0.2519,0.2519,0.252,0.2516,0.2518,0.2519,0.2514,0.2535,0.252,0.252,0.2577,0.2554,0.2556,0.2559,0.266,0.2673,0.2683,0,0,0,0,0,0,0.2444,0.2479,0.2482,0.2496,0.2508,0.2519,0.2521,0.2521,0.2522,0.2523,0.2519,0.252,0.2558,0.2537,0.2521,0.2595,0.2548,0.2551,0.2624,0.2636,0.2646,0.263,0.2513,0,0,0,0,0,0.2442,0.2463,0.2484,0.2494,0.2503,0.251,0.2514,0.252,0.2527,0.2527,0.253,0.2538,0.2568,0.2575,0.2587,0.2612,0.2598,0.265,0.266,0.2668,0.2654,0.2691,0.2703,0.257,0.257,0.257,0,0,0.2431,0.2456,0.2463,0.249,0.25,0.2522,0.2512,0.2527,0.2552,0.2528,0.2556,0.2571,0.2581,0.2627,0.2642,0.2617,0.2701,0.2672,0.268,0.266,0.2695,0.2708,0.272,0.2572,0.2571,0.2571,0,0,0.2428,0.2447,0.2462,0.2482,0.2508,0.2525,0.2532,0.255,0.2564,0.2593,0.2601,0.2636,0.2658,0.2689,0.2708,0.2768,0.2754,0.2782,0.282,0.2858,0.2869,0.2879,0.2888,0.2897,0.2784,0.2785,0.2785,0,0.241,0.244,0.2465,0.2489,0.2509,0.2531,0.2551,0.2577,0.2597,0.2613,0.2614,0.2682,0.2694,0.2767,0.2797,0.2795,0.2797,0.2782,0.2872,0.2881,0.289,0.2896,0.2906,0.279,0.279,0.2789,0.2788,0,0.2423,0.2447,0.246,0.2508,0.2532,0.2554,0.2601,0.2624,0.2651,0.2678,0.2746,0.2775,0.2809,0.2844,0.2842,0.292,0.2897,0.2888,0.2847,0.291,0.2912,0.292,0.2798,0.2796,0.2795,0.2793,0,0,0.2377,0.2452,0.2456,0.2485,0.2544,0.2568,0.2622,0.2673,0.2711,0.2759,0.2813,0.2889,0.2901,0.292,0.2942,0.298,0.3057,0.296,0.2959,0.2975,0.3124,0.2967,0.296,0.3072,0.3073,0.3075,0.3106,0,0.2372,0.2426,0.2465,0.2517,0.2548,0.2596,0.2646,0.27,0.2752,0.2812,0.2874,0.2937,0.2937,0.2972,0.3014,0.3048,0.3079,0.3047,0.3052,0.3051,0.291,0.2965,0.2786,0.2787,0.3114,0.3115,0.3116,0,0.2365,0.2408,0.2452,0.2535,0.2551,0.2584,0.2666,0.2718,0.2809,0.2852,0.2922,0.2968,0.305,0.3039,0.312,0.3101,0.311,0.313,0.3132,0.2943,0.2908,0.2772,0.2788,0.2709,0.3127,0.3126,0.3125,0,0.2328,0.24,0.2437,0.2463,0.2555,0.2578,0.2631,0.2716,0.2775,0.2878,0.2928,0.302,0.3069,0.3119,0.3149,0.3147,0.3217,0.3219,0.3084,0.3073,0.2895,0.2863,0.283,0.3261,0.3261,0.3261,0.3261,0,0.2317,0.235,0.2419,0.2442,0.2493,0.256,0.2627,0.2688,0.2787,0.2854,0.2944,0.3,0.3091,0.314,0.3168,0.3133,0.323,0.3084,0.3072,0.2925,0.2898,0.2795,0.2777,0.3262,0.3262,0.3262,0.3262,0,0.2288,0.2327,0.2377,0.2455,0.2477,0.2518,0.2626,0.2683,0.2768,0.2858,0.2896,0.2998,0.3041,0.3105,0.3172,0.3124,0.3021,0.3096,0.2896,0.2857,0.2612,0.2605,0.2445,0.2381,0.2948,0.2944,0.2941,0,0.2292,0.2306,0.2376,0.2404,0.2437,0.2506,0.2558,0.2662,0.2722,0.2842,0.2878,0.2945,0.2967,0.2988,0.2926,0.2914,0.2885,0.2723,0.2672,0.2558,0.2547,0.2484,0.2442,0.25,0.2494,0.2488,0.2484,0,0.2303,0.2311,0.2354,0.2389,0.2434,0.2496,0.2567,0.2606,0.2717,0.2758,0.2786,0.2808,0.2796,0.2669,0.2629,0.2608,0.2545,0.2607,0.2565,0.2234,0.2092,0.2038,0.2517,0.2437,0.2442,0.2445,0.2448,0.2449,0.2312,0.2326,0.2354,0.2379,0.2424,0.2448,0.2447,0.2509,0.2541,0.2534,0.2622,0.2548,0.247,0.2361,0.2322,0.2099,0.2186,0.2009,0.2028,0.199,0.1854,0.2194,0.2046,0.2048,0.2051,0.2052,0.2054,0,0.2311,0.2313,0.2346,0.2347,0.2341,0.2383,0.2419,0.237,0.2317,0.2331,0.2287,0.2134,0.1983,0.192,0.1696,0.1559,0.1521,0.1509,0.1423,0.1429,0.1791,0.1695,0.1372,0.1372,0.1372,0.1372,0.1372,0.1372,0.2315,0.231,0.2299,0.2247,0.2235,0.2158,0.2136,0.2066,0.2032,0.1864,0.1737,0.1712,0.1669,0.1453,0.1248,0.1205,0.1142,0.1001,0.1098,0.1389,0.1439,0.1487,0.1393,0.1012,0.1012,0.0647,0.0644,0.0642]},{"header":{"parameterUnit":"m.s-1","parameterCategory":2,"la1":30.2991,"la2":30.254,"lo1":-89.0895,"lo2":-89.0444,"dy":0.0017,"dx":0.0017,"nx":28,"ny":28,"refTime":"2025-09-02T09:00:00:Z","depth":"0","parameterNumber":3,"parameterNumberName":"V-component_of_CURRENTS"},"data":[0,0,0,0,0,0,0,0,0,0,0,0,0,0,0,0,0,0,0,0,0,0,0,0,0,0,0,0,0,0,0,0,0,0,0,0,0,0,0,0,0,0,0,0,0,0,0,0,0,0,0,0,0,0,0,0,0,0,0.0222,0.0222,0,0.0215,0.0215,0.0215,0.0207,0.0207,0.0207,0.0207,0.0177,0.0176,0.0176,0,0,0,0,0,0,0,0,0,0,0,0,0,0.0205,0.0206,0.0222,0.0222,0.0222,0.0215,0.0215,0.0215,0.0207,0.0207,0.0207,0.0207,0.0177,0.0176,0.0175,0,0,0,0,0,0,0,0,0,0,0,0,0,0.0207,0.0206,0.0222,0.0217,0.0217,0.0215,0.0215,0.0215,0.0207,0.0207,0.0207,0.0207,0.0177,0.0176,0.0175,0.0172,0,0,0.0172,0.0172,0,0,0,0,0,0,0,0,0.0207,0.0207,0.0218,0.0217,0.0217,0.0212,0.0199,0.02,0.0207,0.021,0.0207,0.0206,0.0187,0.0185,0.0184,0.0171,0.0169,0.0172,0.0171,0.0171,0.0171,0,0,0,0,0,0,0,0.0207,0.0207,0.0219,0.0218,0.0217,0.0208,0.0208,0.0199,0.0199,0.021,0.0209,0.0209,0.0186,0.0185,0.0183,0.0169,0.0172,0.0171,0.0171,0.017,0.0157,0.0157,0,0,0,0,0,0,0.0209,0.0208,0.0219,0.0219,0.0212,0.0208,0.0209,0.0213,0.0199,0.0197,0.0209,0.0209,0.0187,0.0184,0.0182,0.0189,0.0171,0.017,0.0169,0.0157,0.0157,0.0157,0,0,0,0,0,0,0.0209,0.0211,0.0219,0.0213,0.0213,0.0209,0.0214,0.0213,0.0212,0.0199,0.0197,0.0209,0.0187,0.0184,0.0176,0.0187,0.017,0.0169,0.0156,0.0157,0.0157,0.0195,0,0,0,0,0,0,0.0209,0.0211,0.0216,0.0213,0.0214,0.0226,0.0215,0.0213,0.0212,0.0212,0.0198,0.0195,0.0186,0.0178,0.0175,0.0185,0.0168,0.0156,0.0157,0.0157,0.0193,0.0196,0.0199,0,0,0,0,0,0.0208,0.0221,0.0216,0.0217,0.0221,0.0227,0.0226,0.0222,0.0213,0.0218,0.0205,0.0196,0.0179,0.0177,0.0174,0.0184,0.0156,0.0156,0.0157,0.0192,0.0196,0.0199,0,0,0,0,0,0,0.0217,0.0221,0.0216,0.0229,0.0229,0.0225,0.0231,0.0223,0.0217,0.0213,0.0197,0.0194,0.0191,0.0181,0.0179,0.0181,0.0167,0.0167,0.0194,0.0198,0.0201,0.0214,0.0167,0,0,0,0,0,0.022,0.0231,0.023,0.0239,0.0242,0.0234,0.0235,0.023,0.0224,0.0221,0.0211,0.0199,0.0191,0.0189,0.0179,0.018,0.0178,0.0185,0.0188,0.0191,0.0199,0.0207,0.0212,0.0159,0.0159,0.0159,0,0,0.0224,0.0229,0.0233,0.0241,0.0241,0.0253,0.0235,0.0239,0.0248,0.0218,0.0226,0.0207,0.0192,0.0194,0.0193,0.0188,0.0203,0.0192,0.0194,0.0201,0.0208,0.0214,0.0218,0.016,0.016,0.016,0,0,0.0243,0.0243,0.026,0.0265,0.0267,0.0265,0.0266,0.0263,0.0263,0.0264,0.0244,0.0232,0.0224,0.0217,0.0211,0.0224,0.0216,0.022,0.025,0.0258,0.0262,0.0267,0.0267,0.0271,0.0225,0.0225,0.0225,0,0.0248,0.0271,0.0265,0.0284,0.0293,0.0273,0.0293,0.0291,0.0283,0.0287,0.0274,0.0261,0.0238,0.0247,0.0244,0.0232,0.0233,0.0238,0.0263,0.0267,0.027,0.027,0.0274,0.0227,0.0227,0.0227,0.0227,0,0.0282,0.0298,0.031,0.0328,0.0335,0.0348,0.0346,0.0349,0.034,0.0335,0.0339,0.0313,0.031,0.0295,0.027,0.0284,0.0275,0.0264,0.0257,0.0278,0.0276,0.0279,0.023,0.0229,0.0229,0.0228,0,0,0.03,0.033,0.0333,0.0352,0.0361,0.0373,0.0387,0.04,0.0417,0.0401,0.0431,0.0394,0.0378,0.037,0.0342,0.0336,0.0346,0.031,0.031,0.0316,0.0362,0.0347,0.0349,0.0342,0.0343,0.0343,0.0349,0,0.033,0.0376,0.0381,0.042,0.0445,0.0437,0.0459,0.0462,0.0462,0.0483,0.0457,0.0468,0.041,0.0413,0.0398,0.0363,0.0357,0.0345,0.0336,0.0335,0.0324,0.0353,0.0382,0.0389,0.0352,0.0353,0.0353,0,0.0365,0.0393,0.044,0.0478,0.0489,0.0505,0.0538,0.0556,0.0568,0.0572,0.0573,0.0556,0.0545,0.0498,0.0459,0.0457,0.0412,0.0379,0.0379,0.0356,0.0327,0.0362,0.0396,0.0366,0.0358,0.0358,0.0357,0,0.0391,0.0436,0.0476,0.0488,0.0525,0.0544,0.0564,0.058,0.0612,0.0635,0.0664,0.0642,0.0648,0.0598,0.0516,0.0495,0.0477,0.0445,0.0391,0.0389,0.0407,0.0406,0.0418,0.0424,0.0424,0.0424,0.0424,0,0.0428,0.046,0.0491,0.0514,0.0568,0.0579,0.0637,0.065,0.069,0.0747,0.0716,0.0758,0.0673,0.0648,0.0563,0.0493,0.0517,0.0406,0.0395,0.0419,0.0419,0.0387,0.035,0.0424,0.0424,0.0424,0.0424,0,0.0454,0.0473,0.0523,0.0566,0.0582,0.0623,0.069,0.0737,0.0762,0.0842,0.086,0.0852,0.0824,0.0735,0.0655,0.0562,0.0472,0.0457,0.0485,0.0476,0.0386,0.035,0.0338,0.0321,0.0406,0.0406,0.0406,0,0.0476,0.0502,0.0559,0.0597,0.0619,0.068,0.073,0.0771,0.0828,0.0906,0.0955,0.0949,0.0968,0.0843,0.0689,0.0565,0.0493,0.0478,0.0436,0.0398,0.035,0.0326,0.0311,0.0474,0.0475,0.0475,0.0475,0,0.0516,0.053,0.0572,0.0643,0.07,0.0773,0.0846,0.0902,0.0969,0.1042,0.1124,0.1147,0.1041,0.0931,0.074,0.0636,0.0467,0.0478,0.0445,0.0412,0.0384,0.0357,0.0444,0.0478,0.0478,0.0478,0.0477,0.0477,0.0545,0.0578,0.0627,0.0699,0.0767,0.0855,0.0921,0.1011,0.1116,0.1225,0.124,0.1293,0.1132,0.0888,0.0752,0.0515,0.0491,0.0436,0.0397,0.0379,0.0359,0.0443,0.0456,0.0456,0.0455,0.0455,0.0455,0,0.0578,0.0615,0.0681,0.0764,0.0842,0.0872,0.0992,0.1067,0.1198,0.1301,0.1377,0.1335,0.1158,0.0935,0.0626,0.0473,0.0412,0.0384,0.0372,0.036,0.0452,0.0452,0.0459,0.0459,0.0459,0.0459,0.0459,0.0459,0.0598,0.0655,0.0685,0.0807,0.087,0.0973,0.1042,0.1158,0.1252,0.1367,0.1402,0.142,0.127,0.0796,0.0502,0.0425,0.0334,0.03,0.0245,0.032,0.0323,0.0325,0.0319,0.0298,0.0297,0.0194,0.0193,0.0192]}],[{"header":{"parameterUnit":"m.s-1","parameterCategory":2,"la1":30.2991,"la2":30.254,"lo1":-89.0895,"lo2":-89.0444,"dy":0.0017,"dx":0.0017,"nx":28,"ny":28,"refTime":"2025-09-02T09:00:00:Z","depth":"2","parameterNumber":2,"parameterNumberName":"U-component_of_CURRENTS"},"data":[0,0,0,0,0,0,0,0,0,0,0,0,0,0,0,0,0,0,0,0,0,0,0,0,0,0,0,0,0,0,0,0,0,0,0,0,0,0,0,0,0,0,0,0,0,0,0,0,0,0,0,0,0,0,0,0,0,0,0.1896,0.1897,0,0.1923,0.1923,0.1922,0.192,0.1921,0.1921,0.1921,0.194,0.194,0.1941,0,0,0,0,0,0,0,0,0,0,0,0,0,0.1883,0.1882,0.1896,0.1897,0.1898,0.1923,0.1923,0.1922,0.192,0.1921,0.1921,0.1922,0.194,0.194,0.1941,0,0,0,0,0,0,0,0,0,0,0,0,0,0.1889,0.1882,0.1896,0.1907,0.1908,0.1923,0.1923,0.1922,0.192,0.1921,0.1921,0.1922,0.194,0.194,0.1941,0.1931,0,0,0.1941,0.1941,0,0,0,0,0,0,0,0,0.1888,0.1888,0.1904,0.1906,0.1908,0.1926,0.1925,0.1928,0.192,0.1907,0.1921,0.1922,0.194,0.194,0.1932,0.1932,0.1933,0.1941,0.1941,0.1942,0.1942,0,0,0,0,0,0,0,0.1888,0.1887,0.1898,0.1905,0.1908,0.1924,0.1924,0.1925,0.1913,0.1908,0.191,0.1926,0.194,0.1932,0.1933,0.1933,0.1941,0.1942,0.1942,0.1942,0.2006,0.2007,0,0,0,0,0,0,0.1898,0.1886,0.1898,0.19,0.1909,0.1924,0.1924,0.1913,0.1913,0.1917,0.1926,0.1926,0.1931,0.1932,0.1933,0.1981,0.1942,0.1942,0.1942,0.2004,0.2006,0.2008,0,0,0,0,0,0,0.1897,0.1898,0.1897,0.1902,0.1905,0.1925,0.1912,0.1913,0.1923,0.1929,0.193,0.1937,0.1932,0.1933,0.1954,0.198,0.1942,0.1942,0.2003,0.2005,0.2007,0.2039,0,0,0,0,0,0,0.1896,0.1896,0.1898,0.1902,0.1905,0.1917,0.1912,0.1914,0.1935,0.1936,0.1939,0.194,0.1932,0.1954,0.1954,0.1979,0.1942,0.2001,0.2004,0.2006,0.2036,0.2042,0.2047,0,0,0,0,0,0.1895,0.1894,0.1896,0.1899,0.1902,0.1918,0.192,0.1932,0.1936,0.1941,0.1949,0.1941,0.1973,0.1955,0.1955,0.1981,0.1999,0.2003,0.2006,0.2033,0.2041,0.2047,0,0,0,0,0,0,0.1887,0.1894,0.1897,0.1897,0.1915,0.1922,0.1935,0.1942,0.1949,0.1956,0.1951,0.1953,0.1988,0.198,0.196,0.2011,0.1989,0.1993,0.201,0.2017,0.2022,0.2043,0.1943,0,0,0,0,0,0.1887,0.1887,0.1901,0.1904,0.1914,0.1926,0.1938,0.1948,0.1958,0.1962,0.1959,0.1972,0.1999,0.2004,0.2019,0.2034,0.2043,0.2056,0.2062,0.2066,0.2086,0.2117,0.2127,0.202,0.2019,0.2019,0,0,0.1888,0.1893,0.1894,0.1904,0.1915,0.1934,0.1932,0.1956,0.1976,0.1963,0.1979,0.1993,0.2011,0.2038,0.2052,0.2034,0.2101,0.2071,0.2075,0.2092,0.2122,0.2132,0.2141,0.2022,0.2021,0.2021,0,0,0.1892,0.189,0.1896,0.191,0.1941,0.1952,0.1965,0.1976,0.1985,0.2019,0.2016,0.2042,0.2072,0.2076,0.2092,0.2137,0.2137,0.2149,0.2184,0.2213,0.2222,0.223,0.2248,0.2257,0.2143,0.2143,0.2143,0,0.19,0.1895,0.1904,0.1918,0.1933,0.1963,0.1976,0.1998,0.2015,0.2023,0.2039,0.2095,0.2097,0.2135,0.2158,0.215,0.2168,0.2151,0.222,0.2228,0.2236,0.2252,0.2262,0.2145,0.2145,0.2144,0.2144,0,0.1902,0.1912,0.1919,0.1942,0.1958,0.1978,0.2011,0.2029,0.206,0.2081,0.2135,0.2152,0.2181,0.2193,0.2198,0.2249,0.2245,0.2228,0.2198,0.2248,0.2262,0.2272,0.2148,0.2147,0.2146,0.2146,0,0,0.1886,0.1914,0.192,0.193,0.1969,0.1981,0.2022,0.2056,0.2093,0.2136,0.2178,0.2234,0.2246,0.2265,0.2263,0.2297,0.2358,0.2295,0.2295,0.2306,0.2429,0.2308,0.2307,0.2358,0.236,0.2362,0.2414,0,0.1889,0.191,0.1922,0.1952,0.1964,0.1996,0.2034,0.2075,0.2124,0.2172,0.2219,0.2272,0.2273,0.2301,0.2334,0.2367,0.2388,0.2346,0.2386,0.2388,0.2268,0.2315,0.2108,0.2127,0.2423,0.2425,0.2426,0,0.1883,0.1899,0.1917,0.1952,0.1961,0.1986,0.2039,0.208,0.2159,0.2203,0.2264,0.2307,0.2372,0.2367,0.245,0.243,0.2436,0.2456,0.2458,0.2344,0.2285,0.2128,0.2133,0.2442,0.2441,0.2439,0.2438,0,0.1859,0.1893,0.1902,0.1913,0.1965,0.1977,0.2012,0.2085,0.2131,0.2223,0.228,0.2356,0.2405,0.2459,0.2497,0.249,0.2582,0.2561,0.2451,0.2442,0.2273,0.2244,0.2604,0.2604,0.2604,0.2604,0.2604,0,0.1848,0.1859,0.1893,0.1901,0.1929,0.1965,0.202,0.2067,0.2156,0.221,0.2291,0.2345,0.2438,0.2493,0.2523,0.2518,0.2593,0.2474,0.2453,0.2275,0.2248,0.2526,0.2516,0.2606,0.2605,0.2605,0.2605,0,0.1825,0.1845,0.1861,0.1903,0.1919,0.194,0.2021,0.2058,0.2155,0.223,0.2266,0.2362,0.2422,0.2485,0.2557,0.2524,0.2548,0.2509,0.2288,0.2238,0.2386,0.2377,0.2418,0.2414,0.2411,0.2408,0.2406,0,0.1816,0.1817,0.1858,0.1864,0.188,0.1927,0.1956,0.2047,0.2083,0.2223,0.2238,0.233,0.2339,0.2399,0.2372,0.2379,0.2462,0.2175,0.211,0.2394,0.237,0.2367,0.2363,0.1906,0.19,0.1895,0.1891,0,0.1794,0.1804,0.1822,0.1833,0.1845,0.188,0.1921,0.196,0.2059,0.2102,0.2147,0.2174,0.2204,0.2094,0.2087,0.2072,0.2166,0.2069,0.244,0.197,0.1911,0.1887,0.1901,0.1846,0.185,0.1854,0.1856,0.1858,0.178,0.1778,0.1787,0.1792,0.181,0.1817,0.1808,0.1838,0.1866,0.1896,0.1982,0.1934,0.1938,0.1807,0.1749,0.1713,0.187,0.1793,0.181,0.1831,0.1747,0.1684,0.1562,0.1564,0.1567,0.1569,0.1571,0,0.1731,0.1734,0.174,0.1732,0.1712,0.1748,0.1762,0.1717,0.1677,0.1706,0.1698,0.1534,0.1428,0.1456,0.1309,0.1292,0.13,0.1251,0.1247,0.1291,0.133,0.1222,0.0897,0.0895,0.0893,0.0892,0,0,0.171,0.1679,0.1675,0.1627,0.1627,0.1557,0.1544,0.1477,0.1458,0.1377,0.1316,0.1387,0.1407,0.1145,0.1094,0.0969,0.1134,0.093,0.1468,0.1508,0.1546,0.1636,0.1517,0,0,0,0,0]},{"header":{"parameterUnit":"m.s-1","parameterCategory":2,"la1":30.2991,"la2":30.254,"lo1":-89.0895,"lo2":-89.0444,"dy":0.0017,"dx":0.0017,"nx":28,"ny":28,"refTime":"2025-09-02T09:00:00:Z","depth":"2","parameterNumber":3,"parameterNumberName":"V-component_of_CURRENTS"},"data":[0,0,0,0,0,0,0,0,0,0,0,0,0,0,0,0,0,0,0,0,0,0,0,0,0,0,0,0,0,0,0,0,0,0,0,0,0,0,0,0,0,0,0,0,0,0,0,0,0,0,0,0,0,0,0,0,0,0,0.0118,0.0118,0,0.0111,0.0111,0.0111,0.0099,0.0098,0.0098,0.0098,0.0065,0.0064,0.0064,0,0,0,0,0,0,0,0,0,0,0,0,0,0.0106,0.0106,0.0118,0.0118,0.0118,0.0111,0.0111,0.0111,0.0099,0.0098,0.0098,0.0098,0.0065,0.0064,0.0064,0,0,0,0,0,0,0,0,0,0,0,0,0,0.0106,0.0106,0.0118,0.0111,0.011,0.0111,0.0111,0.0111,0.0099,0.0098,0.0098,0.0098,0.0065,0.0064,0.0063,0.0064,0,0,0.006,0.006,0,0,0,0,0,0,0,0,0.0106,0.0107,0.0112,0.0112,0.0111,0.0105,0.0094,0.0094,0.0099,0.0103,0.0098,0.0097,0.0076,0.0074,0.0074,0.0063,0.0061,0.006,0.006,0.0059,0.0059,0,0,0,0,0,0,0,0.0106,0.0107,0.0116,0.0112,0.0111,0.0103,0.0102,0.0094,0.0091,0.0103,0.0102,0.0101,0.0076,0.0075,0.0073,0.0061,0.006,0.0059,0.0059,0.0058,0.0047,0.0048,0,0,0,0,0,0,0.0108,0.0107,0.0116,0.0115,0.0107,0.0103,0.0103,0.0107,0.0092,0.009,0.0101,0.01,0.0077,0.0074,0.0072,0.0079,0.0059,0.0058,0.0058,0.0047,0.0048,0.0048,0,0,0,0,0,0,0.0108,0.0109,0.0116,0.011,0.0111,0.0104,0.0109,0.0107,0.0106,0.0091,0.0088,0.01,0.0077,0.0073,0.0067,0.0077,0.0058,0.0057,0.0047,0.0047,0.0048,0.0089,0,0,0,0,0,0,0.0108,0.011,0.0113,0.0111,0.0111,0.0123,0.0109,0.0108,0.0105,0.0104,0.0089,0.0086,0.0076,0.0069,0.0066,0.0076,0.0056,0.0046,0.0047,0.0048,0.0087,0.0091,0.0094,0,0,0,0,0,0.0108,0.0118,0.0114,0.0115,0.0117,0.0123,0.0123,0.0117,0.0106,0.0112,0.0098,0.0087,0.007,0.0068,0.0065,0.0075,0.0046,0.0047,0.0048,0.0086,0.009,0.0094,0,0,0,0,0,0,0.0115,0.0118,0.0113,0.0124,0.0125,0.0121,0.0126,0.0118,0.0112,0.0107,0.009,0.0087,0.0084,0.0073,0.0071,0.0072,0.0056,0.0056,0.0086,0.009,0.0094,0.0105,0.0055,0,0,0,0,0,0.0119,0.0126,0.0126,0.0134,0.0137,0.013,0.0131,0.0125,0.0119,0.0116,0.0106,0.0093,0.0086,0.0082,0.0073,0.0075,0.0067,0.0078,0.0082,0.0085,0.0092,0.0092,0.0096,0.005,0.005,0.005,0,0,0.0123,0.0125,0.0129,0.0136,0.0136,0.015,0.013,0.0133,0.0143,0.0113,0.0121,0.0103,0.0087,0.009,0.0088,0.0082,0.0092,0.0086,0.0088,0.0094,0.0093,0.0098,0.0102,0.0051,0.005,0.005,0,0,0.014,0.0139,0.0154,0.016,0.0162,0.016,0.0162,0.0159,0.0158,0.0159,0.014,0.013,0.012,0.0115,0.0109,0.0125,0.0108,0.0118,0.0147,0.0148,0.0152,0.0155,0.0148,0.0151,0.0123,0.0123,0.0123,0,0.0145,0.0166,0.0159,0.0177,0.0187,0.0168,0.0189,0.0187,0.0181,0.0184,0.0167,0.0154,0.0134,0.0144,0.0145,0.0134,0.0127,0.0135,0.0153,0.0156,0.0159,0.0151,0.0153,0.0125,0.0124,0.0124,0.0124,0,0.0178,0.0193,0.0204,0.0222,0.0231,0.0244,0.0243,0.0248,0.0237,0.023,0.0231,0.0206,0.0201,0.019,0.0169,0.0181,0.0168,0.0156,0.0146,0.0167,0.0156,0.0158,0.0128,0.0127,0.0126,0.0126,0,0,0.0196,0.0223,0.0227,0.0246,0.0257,0.027,0.0287,0.0301,0.0316,0.0297,0.032,0.0289,0.0268,0.026,0.0235,0.0228,0.0232,0.0201,0.02,0.0198,0.0229,0.0218,0.0219,0.0224,0.0225,0.0225,0.0212,0,0.0226,0.027,0.0275,0.0316,0.0342,0.0337,0.036,0.0364,0.036,0.0376,0.0347,0.0353,0.0298,0.0299,0.0282,0.0249,0.0238,0.0236,0.0205,0.0204,0.0196,0.0221,0.0238,0.0228,0.0214,0.0214,0.0214,0,0.0262,0.0288,0.0335,0.0374,0.0385,0.0404,0.0439,0.0456,0.0463,0.0461,0.0454,0.0431,0.0418,0.0372,0.0326,0.0327,0.028,0.0248,0.0246,0.0225,0.0197,0.0205,0.0231,0.0217,0.0216,0.0216,0.0216,0,0.0289,0.0333,0.0373,0.0387,0.0423,0.0444,0.0464,0.0479,0.0509,0.0521,0.0542,0.051,0.051,0.0452,0.037,0.0353,0.032,0.0292,0.0237,0.0236,0.0238,0.0236,0.0262,0.0262,0.0262,0.0262,0.0262,0,0.0326,0.0358,0.0389,0.0411,0.0466,0.0477,0.0533,0.0544,0.058,0.0628,0.0589,0.0619,0.0529,0.0495,0.0409,0.0333,0.035,0.0251,0.0238,0.0252,0.0251,0.023,0.0227,0.0261,0.0261,0.0261,0.0262,0,0.0352,0.037,0.042,0.0463,0.048,0.052,0.0587,0.0631,0.0649,0.0717,0.073,0.071,0.0666,0.057,0.0481,0.0392,0.0317,0.0281,0.0299,0.0288,0.0219,0.0218,0.0227,0.0226,0.0226,0.0226,0.0226,0,0.0372,0.0398,0.0457,0.0493,0.0514,0.0575,0.0625,0.0664,0.0718,0.0776,0.0818,0.0795,0.0784,0.0647,0.0506,0.0373,0.0333,0.0281,0.0248,0.0232,0.0218,0.0218,0.0217,0.0264,0.0264,0.0264,0.0264,0,0.0408,0.0424,0.0466,0.0537,0.0594,0.0667,0.0737,0.0793,0.0852,0.0902,0.0954,0.0949,0.0832,0.0704,0.0517,0.0419,0.0303,0.0278,0.0276,0.0268,0.0266,0.0252,0.0251,0.0265,0.0265,0.0265,0.0265,0.0265,0.0433,0.0467,0.0518,0.0589,0.0657,0.0745,0.0808,0.0886,0.0973,0.104,0.1039,0.102,0.0886,0.0647,0.0493,0.032,0.0328,0.0244,0.0244,0.0244,0.025,0.0247,0.0243,0.0242,0.0242,0.0242,0.0242,0,0.0466,0.0503,0.0568,0.0651,0.0727,0.076,0.0875,0.0934,0.103,0.1079,0.1105,0.0959,0.0828,0.0661,0.0424,0.0281,0.0262,0.0212,0.0226,0.0227,0.0227,0.0231,0.0219,0.0219,0.0218,0.0218,0,0,0.0483,0.0542,0.0573,0.069,0.0752,0.085,0.0915,0.0996,0.1047,0.1082,0.1063,0.1048,0.0869,0.0683,0.0503,0.0362,0.0317,0.0322,0.0359,0.0399,0.0401,0.0269,0.028,0,0,0,0,0]}],[{"header":{"parameterUnit":"m.s-1","parameterCategory":2,"la1":30.2991,"la2":30.254,"lo1":-89.0895,"lo2":-89.0444,"dy":0.0017,"dx":0.0017,"nx":28,"ny":28,"refTime":"2025-09-02T09:00:00:Z","depth":"4","parameterNumber":2,"parameterNumberName":"U-component_of_CURRENTS"},"data":[0,0,0,0,0,0,0,0,0,0,0,0,0,0,0,0,0,0,0,0,0,0,0,0,0,0,0,0,0,0,0,0,0,0,0,0,0,0,0,0,0,0,0,0,0,0,0,0,0,0,0,0,0,0,0,0,0,0,0.0996,0.0997,0,0.1015,0.1015,0.1015,0.1046,0.1047,0.1047,0.1048,0.1076,0.1076,0.1077,0,0,0,0,0,0,0,0,0,0,0,0,0,0.1005,0.1005,0.0996,0.0997,0.0997,0.1015,0.1015,0.1016,0.1046,0.1047,0.1047,0.1048,0.1076,0.1076,0.1077,0,0,0,0,0,0,0,0,0,0,0,0,0,0.1009,0.1005,0.0996,0.1015,0.1017,0.1015,0.1015,0.1016,0.1046,0.1047,0.1048,0.1049,0.1076,0.1076,0.1077,0.1057,0,0,0.1077,0.1077,0,0,0,0,0,0,0,0,0.1009,0.1009,0.1012,0.1014,0.1016,0.103,0.1029,0.1031,0.1045,0.1033,0.1048,0.1049,0.1062,0.1063,0.1063,0.1059,0.106,0.1077,0.1077,0.1077,0.1077,0,0,0,0,0,0,0,0.1009,0.1008,0.1003,0.1013,0.1015,0.103,0.1031,0.1029,0.1041,0.1035,0.1037,0.1041,0.1063,0.1062,0.1064,0.106,0.1077,0.1077,0.1077,0.1078,0.1129,0.113,0,0,0,0,0,0,0.1007,0.1008,0.1002,0.1003,0.1017,0.1029,0.103,0.1024,0.1041,0.1045,0.104,0.1042,0.1062,0.1063,0.1065,0.1119,0.1077,0.1078,0.1078,0.1128,0.1129,0.1131,0,0,0,0,0,0,0.1007,0.1005,0.1001,0.1008,0.1008,0.1027,0.102,0.1024,0.1052,0.1045,0.1049,0.1069,0.1062,0.1065,0.1085,0.1117,0.1078,0.1078,0.1126,0.1128,0.113,0.1178,0,0,0,0,0,0,0.1007,0.1005,0.1015,0.1007,0.1008,0.1017,0.1019,0.1023,0.1052,0.1056,0.107,0.1072,0.1063,0.1085,0.1086,0.1117,0.1078,0.1125,0.1127,0.1129,0.1175,0.1181,0.1187,0,0,0,0,0,0.1007,0.1007,0.1015,0.1016,0.1015,0.1018,0.102,0.1036,0.1053,0.1066,0.1077,0.1073,0.1101,0.1086,0.1086,0.1118,0.1123,0.1126,0.1129,0.1172,0.118,0.1187,0,0,0,0,0,0,0.1016,0.101,0.1019,0.1018,0.1028,0.1024,0.104,0.1052,0.1071,0.1083,0.108,0.1083,0.1119,0.1109,0.1092,0.1141,0.1115,0.1118,0.1148,0.1155,0.1161,0.1145,0.1078,0,0,0,0,0,0.1022,0.1024,0.1022,0.1029,0.1034,0.1045,0.1055,0.1064,0.1073,0.1084,0.1091,0.1105,0.1125,0.1133,0.1142,0.1158,0.1161,0.1183,0.1189,0.1194,0.1182,0.1225,0.1234,0.114,0.114,0.114,0,0,0.1028,0.1028,0.103,0.1033,0.1042,0.1048,0.1054,0.1072,0.1087,0.1082,0.1111,0.1129,0.1136,0.1162,0.1177,0.116,0.1224,0.1197,0.1202,0.1186,0.1229,0.1238,0.1247,0.1142,0.1141,0.1141,0,0,0.103,0.1042,0.1041,0.105,0.1067,0.1072,0.1084,0.1093,0.1111,0.1133,0.1145,0.117,0.1194,0.1199,0.1207,0.1248,0.126,0.1273,0.1283,0.1327,0.1335,0.1342,0.1363,0.1372,0.127,0.127,0.127,0,0.1044,0.1037,0.1045,0.1048,0.106,0.1085,0.1091,0.1109,0.1126,0.1138,0.1151,0.1197,0.1204,0.1235,0.1255,0.126,0.1289,0.1256,0.1335,0.1342,0.1348,0.1368,0.1377,0.1273,0.1272,0.1272,0.1272,0,0.1038,0.1044,0.1048,0.106,0.1072,0.1087,0.1105,0.1129,0.116,0.1171,0.1217,0.123,0.1256,0.1275,0.1278,0.1333,0.1342,0.1344,0.1315,0.136,0.1379,0.1387,0.1276,0.1275,0.1275,0.1274,0,0,0.1039,0.1043,0.1048,0.1054,0.1082,0.1088,0.1119,0.1143,0.1175,0.1202,0.124,0.1271,0.1291,0.1301,0.1321,0.1352,0.1425,0.1375,0.1376,0.1393,0.1528,0.1415,0.1413,0.1463,0.1465,0.1466,0.1525,0,0.104,0.104,0.1045,0.1061,0.1063,0.1095,0.1122,0.1151,0.1191,0.1236,0.126,0.131,0.1301,0.134,0.1368,0.1419,0.1449,0.1408,0.1483,0.1484,0.1376,0.1419,0.1471,0.1531,0.1533,0.1534,0.1535,0,0.103,0.1033,0.104,0.1058,0.1065,0.1087,0.1141,0.117,0.1231,0.1266,0.1308,0.1344,0.139,0.1393,0.1467,0.1455,0.1493,0.1519,0.1522,0.1399,0.1385,0.1475,0.1549,0.1548,0.1547,0.1546,0.1545,0,0.1016,0.1027,0.1036,0.1044,0.1072,0.1095,0.1126,0.1182,0.1217,0.1302,0.1344,0.1395,0.1445,0.1495,0.1533,0.1531,0.1617,0.1615,0.1537,0.1529,0.1592,0.1583,0.1669,0.1669,0.1669,0.1669,0.1668,0,0.1,0.1008,0.1036,0.1041,0.107,0.1097,0.1145,0.1188,0.126,0.1298,0.1368,0.1405,0.1485,0.1534,0.1562,0.156,0.1637,0.1534,0.1537,0.1611,0.1605,0.1598,0.1589,0.1671,0.167,0.167,0.1669,0,0.097,0.0991,0.1003,0.1042,0.106,0.1087,0.115,0.1178,0.1264,0.1324,0.1359,0.1442,0.15,0.155,0.1631,0.1583,0.1604,0.1588,0.1655,0.1661,0.1483,0.1476,0.1505,0.1501,0.1498,0.1496,0.1494,0,0.0946,0.0949,0.1,0.1014,0.1036,0.1079,0.1102,0.1177,0.1201,0.1321,0.1334,0.1433,0.1474,0.1483,0.1547,0.1577,0.1563,0.1554,0.1513,0.1466,0.1467,0.1465,0.1462,0.1489,0.1488,0.1487,0.1487,0,0.0901,0.0934,0.0948,0.098,0.1008,0.1024,0.1062,0.1074,0.1157,0.1249,0.1283,0.1321,0.1379,0.1417,0.1449,0.1468,0.1546,0.1523,0.1529,0.149,0.1447,0.1451,0.1451,0.1476,0.1478,0.1479,0.1479,0,0.088,0.0878,0.0908,0.0929,0.0961,0.0952,0.0979,0.0994,0.1033,0.1156,0.1163,0.1269,0.1357,0.1361,0.139,0.1397,0.138,0.1329,0.1345,0.1357,0.128,0.1203,0.1157,0,0,0,0,0,0.0846,0.0833,0.0845,0.0857,0.0886,0.0903,0.0938,0.0964,0.1045,0.1036,0.1097,0.1144,0.1193,0.1244,0.1224,0.133,0.1386,0.13,0.1335,0.142,0.1431,0.1354,0,0,0,0,0,0,0.0822,0.0831,0.0822,0.0795,0.0792,0.0803,0.0823,0.0873,0.0864,0.0963,0.0994,0.1076,0.114,0.1205,0.1208,0.1224,0.1219,0.1367,0.1363,0.1413,0.1424,0.1433,0.1357,0,0,0,0,0]},{"header":{"parameterUnit":"m.s-1","parameterCategory":2,"la1":30.2991,"la2":30.254,"lo1":-89.0895,"lo2":-89.0444,"dy":0.0017,"dx":0.0017,"nx":28,"ny":28,"refTime":"2025-09-02T09:00:00:Z","depth":"4","parameterNumber":3,"parameterNumberName":"V-component_of_CURRENTS"},"data":[0,0,0,0,0,0,0,0,0,0,0,0,0,0,0,0,0,0,0,0,0,0,0,0,0,0,0,0,0,0,0,0,0,0,0,0,0,0,0,0,0,0,0,0,0,0,0,0,0,0,0,0,0,0,0,0,0,0,0.0136,0.0136,0,0.014,0.014,0.014,0.0132,0.0132,0.0131,0.0131,0.0117,0.0117,0.0117,0,0,0,0,0,0,0,0,0,0,0,0,0,0.0117,0.0117,0.0136,0.0136,0.0136,0.014,0.014,0.014,0.0132,0.0132,0.0131,0.0131,0.0117,0.0117,0.0117,0,0,0,0,0,0,0,0,0,0,0,0,0,0.0124,0.0118,0.0136,0.0133,0.0132,0.014,0.014,0.014,0.0132,0.0132,0.0131,0.0131,0.0117,0.0117,0.0117,0.0125,0,0,0.0116,0.0116,0,0,0,0,0,0,0,0,0.0124,0.0125,0.0133,0.0133,0.0132,0.0135,0.0128,0.0134,0.0132,0.0133,0.0131,0.0131,0.0121,0.0121,0.0123,0.0124,0.0123,0.0116,0.0116,0.0116,0.0116,0,0,0,0,0,0,0,0.0123,0.0124,0.0138,0.0133,0.0133,0.0128,0.0129,0.0129,0.0129,0.0133,0.0132,0.0132,0.0121,0.0123,0.0123,0.0123,0.0116,0.0116,0.0116,0.0116,0.0126,0.0126,0,0,0,0,0,0,0.0123,0.0124,0.0138,0.0138,0.0126,0.0129,0.013,0.0135,0.013,0.0129,0.0132,0.0131,0.0124,0.0123,0.0122,0.0137,0.0116,0.0116,0.0116,0.0126,0.0126,0.0126,0,0,0,0,0,0,0.0122,0.0124,0.0138,0.013,0.0132,0.013,0.0136,0.0135,0.0137,0.0129,0.0128,0.0134,0.0124,0.0122,0.0124,0.0136,0.0116,0.0116,0.0125,0.0126,0.0126,0.0163,0,0,0,0,0,0,0.0122,0.0124,0.0128,0.0131,0.0132,0.0146,0.0136,0.0135,0.0137,0.0136,0.0131,0.0129,0.0123,0.0124,0.0124,0.0136,0.0116,0.0125,0.0125,0.0126,0.0162,0.0165,0.0168,0,0,0,0,0,0.0121,0.0132,0.0129,0.013,0.0138,0.0146,0.0147,0.0144,0.0138,0.0143,0.0137,0.0129,0.0128,0.0125,0.0124,0.0136,0.0124,0.0125,0.0126,0.016,0.0164,0.0168,0,0,0,0,0,0,0.0126,0.0132,0.0129,0.014,0.0143,0.0145,0.0151,0.0146,0.0147,0.0144,0.0135,0.0133,0.0138,0.0131,0.0128,0.014,0.0125,0.0125,0.0151,0.0155,0.0158,0.0167,0.0115,0,0,0,0,0,0.0129,0.0138,0.014,0.0149,0.0153,0.0151,0.0154,0.0151,0.0151,0.0151,0.0147,0.0142,0.0142,0.0143,0.014,0.0149,0.0135,0.0156,0.0159,0.0162,0.0168,0.0153,0.0156,0.0129,0.0129,0.0129,0,0,0.0132,0.0137,0.0141,0.0151,0.0154,0.0167,0.0152,0.0159,0.017,0.0149,0.0163,0.0152,0.0146,0.0155,0.0157,0.0151,0.0161,0.0163,0.0165,0.017,0.0154,0.0157,0.0159,0.013,0.013,0.013,0,0,0.0147,0.015,0.0163,0.017,0.0175,0.0177,0.0179,0.0182,0.0184,0.0194,0.018,0.0179,0.0181,0.018,0.0179,0.0198,0.0176,0.0194,0.0222,0.0208,0.021,0.0211,0.0194,0.0194,0.0199,0.0199,0.0199,0,0.015,0.017,0.0168,0.0184,0.0195,0.0184,0.0204,0.0206,0.0208,0.0213,0.0204,0.0206,0.0197,0.021,0.0214,0.0207,0.0191,0.0209,0.0212,0.0213,0.0214,0.0196,0.0196,0.0201,0.0201,0.02,0.02,0,0.0177,0.0193,0.0203,0.0222,0.0232,0.0248,0.0252,0.0259,0.0258,0.0257,0.0266,0.0254,0.0255,0.0251,0.024,0.0245,0.0228,0.0215,0.0203,0.0219,0.0199,0.0198,0.0204,0.0203,0.0202,0.0202,0,0,0.0186,0.0216,0.0221,0.0239,0.0256,0.0269,0.029,0.0307,0.0321,0.0316,0.0336,0.0329,0.0312,0.031,0.0292,0.0281,0.0271,0.0253,0.0252,0.0239,0.0234,0.0226,0.0223,0.0255,0.0255,0.0255,0.0216,0,0.021,0.0249,0.0259,0.0298,0.0322,0.0326,0.035,0.036,0.0362,0.0375,0.0361,0.0368,0.0338,0.0338,0.0321,0.0285,0.027,0.0283,0.0219,0.0217,0.0209,0.0222,0.0255,0.0215,0.0215,0.0215,0.0214,0,0.0236,0.0261,0.0305,0.0346,0.0357,0.0378,0.0413,0.0432,0.0441,0.0443,0.044,0.042,0.041,0.0379,0.0327,0.0334,0.0288,0.0256,0.0254,0.0234,0.0207,0.0196,0.0212,0.0212,0.0212,0.0212,0.0212,0,0.0251,0.0296,0.0334,0.0348,0.0389,0.0412,0.0435,0.0453,0.0479,0.0484,0.0497,0.0469,0.0465,0.0408,0.0338,0.033,0.0275,0.0255,0.0204,0.0203,0.0205,0.0203,0.0216,0.0216,0.0216,0.0216,0.0216,0,0.0277,0.0308,0.0345,0.0366,0.0418,0.0437,0.0488,0.0501,0.053,0.0561,0.0532,0.0541,0.047,0.0428,0.0355,0.0279,0.0286,0.0214,0.0195,0.022,0.0221,0.0203,0.0202,0.0215,0.0215,0.0215,0.0216,0,0.029,0.0313,0.036,0.0407,0.0427,0.0465,0.0531,0.0565,0.0583,0.0623,0.0629,0.0599,0.0544,0.0468,0.0376,0.0309,0.0233,0.0202,0.0239,0.0222,0.0164,0.0165,0.0144,0.0143,0.0143,0.0142,0.0142,0,0.0301,0.0326,0.0387,0.0419,0.0445,0.0505,0.0551,0.0591,0.0627,0.0654,0.0672,0.0636,0.0603,0.0472,0.0383,0.0255,0.0229,0.0182,0.0169,0.0174,0.0158,0.016,0.0162,0.0141,0.0141,0.0141,0.0141,0,0.0321,0.0342,0.038,0.0445,0.0497,0.0561,0.0623,0.0654,0.0698,0.0715,0.0704,0.064,0.058,0.0472,0.0377,0.0281,0.021,0.0176,0.0176,0.0164,0.017,0.0156,0.0158,0.0139,0.0139,0.014,0.014,0,0.0334,0.0362,0.0409,0.0468,0.0534,0.0595,0.0632,0.0674,0.0711,0.0733,0.0725,0.0659,0.0621,0.0486,0.0397,0.0307,0.0274,0.0224,0.0221,0.0221,0.0252,0.0273,0.0263,0,0,0,0,0,0.0346,0.0376,0.043,0.0494,0.0559,0.0598,0.067,0.0702,0.0741,0.0735,0.0732,0.0672,0.0544,0.0491,0.04,0.0382,0.0258,0.027,0.0198,0.013,0.0132,0.0154,0,0,0,0,0,0,0.0352,0.04,0.0427,0.0504,0.0548,0.0625,0.0671,0.07,0.0697,0.0715,0.0651,0.0626,0.0508,0.0593,0.0389,0.0364,0.03,0.0217,0.0214,0.0129,0.0131,0.0132,0.0156,0,0,0,0,0]}]]